COSMOS 2251 DEB

Satellite information

Favourite Embed

Satellite Type and Status

DEBRISIN ORBIT

Key statistics

Satellite COSMOS 2251 DEB at a glance.

Uptime

11709

Days in orbit

Revolutions

≈ 13.5

Per day

Orbit

LEO

Low Earth Orbit

Inclination

73.9

Latest

Satellite identification and parameters

Extended collection of information and parameters for COSMOS 2251 DEB.

Object identification

Identified? True

Debris? True

Object name: COSMOS 2251 DEB

International designator: 1993-036FZ

Object number (NORAD): 33990

Object ID (CCSDS): 33990

Country: COMMONWEALTH OF INDEPENDENT STATES (CIS)

Current information (Y/N): Y

RCS size: MEDIUM

Orbital parameters

Period: 106.687 minutes

Inclination: 73.9258 deg

SMA: 7451.323 km

Apoapsis: 1377.346 km

Periapsis: 769.031 km

RAAN: 181.6057 deg

Eccentricy: 0.0408193

Argument of periapsis: 231.7664 deg

Mean anomaly: 297.5464 deg

Mean motion: 13.49747824 rev/day

Mean motion (dot): 0.00000531 rev/day2

B* drag term: 0.00052174 1/REarth

Two-line elements (TLE)

Creation date: July 6, 2025, 6:05 p.m.

Reference frame: TEME

Reference center: EARTH

Epoch: July 6, 2025, 11:15 a.m. UTC

TLE line 0: 0 COSMOS 2251 DEB

TLE line 1: 1 33990U 93036FZ 25187.46897110 .00000531 00000-0 52174-3 0 9995

TLE line 2: 2 33990 73.9258 181.6057 0408193 231.7664 297.5464 13.49747824805809

Live tracking on map

Real-time ground track for satellite COSMOS 2251 DEB.

In-orbit conjunctions

A list of the most updated potential collisions computed for object COSMOS 2251 DEB.

Target Orbit TCA Probability of collision Miss distance Type
COSMOS 1275 DEB LEO 2025-05-26 23:09:08 0.0002006826 158.0 (m) DEBRIS
COSMOS 1867 COOLANT LEO 2025-05-10 08:34:53 0.000336473 99.0 (m) DEBRIS
CZ-6A DEB LEO 2024-12-14 16:58:14 0.002007782 141.0 (m) DEBRIS

Associated space launch

Military communications satellite. Destroyed in a collision with Iridium 33.

COSMOS 2251 DEB was lifted into orbit during the mission ‘Kosmos-3M | Strela-2M 51’, on board a Kosmos-3M space rocket.

The launch took place on June 16, 1993, 4:17 a.m. from 132/1 (132L).

For more information about the launch, click the button.

Launch to space Kosmos-3M | Strela-2M 51
Kosmos-3M | Strela-2M 51

Agency: N/A

Status: Launch Successful

Launch date: June 16, 1993, 4:17 a.m. UTC

Rocket: Kosmos-3M

Launch pad: 132/1 (132L)

Location: Plesetsk Cosmodrome, Russian Federation

...

Latest news about this satellite

There are no fresh news available about this satellite. Check back as we update our databases every day.


Newsletter sign-up

Weekly statistics, charts and insights to help you stay on top of the space industry.